TimeEDT,TemperatureF,Dew PointF,Humidity,Sea Level PressureIn,VisibilityMPH,Wind Direction,Wind SpeedMPH,Gust SpeedMPH,PrecipitationIn,Events,Conditions,WindDirDegrees,DateUTC
12:03 AM,73.4,73.4,100,30.20,10.0,East,4.6,-,N/A,,Scattered Clouds,80,2013-08-21 04:03:00
12:58 AM,73.9,72.9,96,30.17,10.0,Variable,3.5,-,N/A,,Scattered Clouds,0,2013-08-21 04:58:00
1:02 AM,73.4,73.4,100,30.19,10.0,East,4.6,-,N/A,,Scattered Clouds,80,2013-08-21 05:02:00
1:12 AM,73.4,73.4,100,30.19,10.0,ENE,4.6,-,N/A,,Mostly Cloudy,70,2013-08-21 05:12:00
1:17 AM,73.4,73.4,100,30.18,10.0,Variable,4.6,-,N/A,,Scattered Clouds,0,2013-08-21 05:17:00
1:27 AM,73.4,73.4,100,30.18,10.0,ENE,4.6,-,N/A,,Mostly Cloudy,70,2013-08-21 05:27:00
1:32 AM,73.4,73.4,100,30.18,10.0,East,4.6,-,N/A,,Mostly Cloudy,90,2013-08-21 05:32:00
1:37 AM,73.4,73.4,100,30.18,10.0,ENE,3.5,-,N/A,,Scattered Clouds,70,2013-08-21 05:37:00
1:42 AM,73.4,73.4,100,30.18,10.0,ENE,2.3,-,N/A,,Mostly Cloudy,70,2013-08-21 05:42:00
1:58 AM,73.6,72.7,97,30.16,10.0,ENE,3.5,-,N/A,,Mostly Cloudy,70,2013-08-21 05:58:00
2:03 AM,73.4,71.6,94,30.17,10.0,ENE,3.5,-,N/A,,Mostly Cloudy,70,2013-08-21 06:03:00
2:18 AM,73.4,73.4,100,30.18,10.0,East,4.6,-,N/A,,Mostly Cloudy,100,2013-08-21 06:18:00
2:28 AM,73.4,73.4,100,30.18,10.0,East,5.8,-,N/A,,Mostly Cloudy,100,2013-08-21 06:28:00
2:58 AM,72.1,70.9,96,30.16,10.0,ESE,11.5,-,N/A,,Mostly Cloudy,110,2013-08-21 06:58:00
3:03 AM,71.6,69.8,94,30.18,10.0,ESE,10.4,-,N/A,,Mostly Cloudy,110,2013-08-21 07:03:00
3:33 AM,71.6,69.8,94,30.16,10.0,ESE,4.6,-,N/A,,Overcast,120,2013-08-21 07:33:00
3:48 AM,71.6,69.8,94,30.16,10.0,ESE,2.3,-,N/A,,Mostly Cloudy,120,2013-08-21 07:48:00
3:58 AM,70.7,69.4,96,30.13,10.0,NNE,1.2,-,N/A,,Partly Cloudy,20,2013-08-21 07:58:00
4:58 AM,70.0,69.4,98,30.14,10.0,East,4.6,-,N/A,,Clear,100,2013-08-21 08:58:00
5:58 AM,69.8,69.3,98,30.16,10.0,Variable,1.2,-,N/A,,Clear,0,2013-08-21 09:58:00
6:58 AM,70.2,68.9,96,30.19,10.0,East,3.5,-,N/A,,Mostly Cloudy,80,2013-08-21 10:58:00
7:07 AM,69.8,69.8,100,30.21,10.0,NE,2.3,-,N/A,,Light Drizzle,50,2013-08-21 11:07:00
7:58 AM,70.2,69.6,98,30.20,10.0,East,2.3,-,0.01,,Light Drizzle,90,2013-08-21 11:58:00
8:10 AM,69.8,69.8,100,30.23,10.0,East,2.3,-,N/A,,Overcast,100,2013-08-21 12:10:00
8:55 AM,71.6,69.8,94,30.24,10.0,East,5.8,-,N/A,,Overcast,100,2013-08-21 12:55:00
8:58 AM,72.0,70.3,95,30.22,10.0,ESE,4.6,-,0.00,,Overcast,110,2013-08-21 12:58:00
9:28 AM,73.4,71.6,94,30.24,7.0,ESE,5.8,-,N/A,,Overcast,120,2013-08-21 13:28:00
9:58 AM,73.0,70.3,91,30.23,7.0,East,8.1,-,N/A,,Overcast,100,2013-08-21 13:58:00
10:38 AM,73.4,69.8,88,30.25,7.0,ESE,8.1,-,N/A,,Overcast,110,2013-08-21 14:38:00
10:48 AM,73.4,69.8,88,30.26,7.0,ESE,9.2,-,N/A,,Overcast,120,2013-08-21 14:48:00
10:58 AM,73.2,70.5,91,30.24,7.0,ESE,12.7,-,N/A,,Overcast,110,2013-08-21 14:58:00
11:13 AM,73.4,69.8,88,30.26,7.0,East,10.4,-,N/A,,Overcast,100,2013-08-21 15:13:00
11:23 AM,73.4,69.8,88,30.26,7.0,East,11.5,-,N/A,,Overcast,100,2013-08-21 15:23:00
11:53 AM,73.4,69.8,88,30.26,10.0,ESE,5.8,-,N/A,,Overcast,110,2013-08-21 15:53:00
11:58 AM,73.8,70.2,88,30.24,10.0,ESE,5.8,-,N/A,,Overcast,120,2013-08-21 15:58:00
12:23 PM,77.0,69.8,78,30.25,10.0,Variable,4.6,-,N/A,,Mostly Cloudy,0,2013-08-21 16:23:00
12:58 PM,79.5,71.1,75,30.22,10.0,ESE,8.1,-,N/A,,Mostly Cloudy,120,2013-08-21 16:58:00
1:58 PM,82.4,71.6,70,30.21,10.0,SE,6.9,-,N/A,,Mostly Cloudy,140,2013-08-21 17:58:00
2:08 PM,80.6,71.6,74,30.23,10.0,Variable,6.9,-,N/A,,Mostly Cloudy,0,2013-08-21 18:08:00
2:48 PM,80.6,73.4,79,30.21,10.0,ESE,6.9,-,N/A,,Mostly Cloudy,120,2013-08-21 18:48:00
2:58 PM,81.3,72.5,74,30.19,10.0,ESE,8.1,-,N/A,,Mostly Cloudy,120,2013-08-21 18:58:00
3:58 PM,80.6,72.9,77,30.17,10.0,East,6.9,-,N/A,,Mostly Cloudy,100,2013-08-21 19:58:00
4:58 PM,81.7,73.8,77,30.16,10.0,East,6.9,-,N/A,,Mostly Cloudy,90,2013-08-21 20:58:00
5:20 PM,80.6,73.4,79,30.18,10.0,East,4.6,-,N/A,Thunderstorm,Thunderstorm,100,2013-08-21 21:20:00
5:58 PM,82.8,73.4,73,30.15,10.0,East,6.9,-,N/A,Thunderstorm,Thunderstorm,90,2013-08-21 21:58:00
6:04 PM,80.6,73.4,79,30.17,10.0,Variable,2.3,-,N/A,,Mostly Cloudy,0,2013-08-21 22:04:00
6:58 PM,79.3,72.9,80,30.13,10.0,ESE,5.8,-,N/A,,Mostly Cloudy,120,2013-08-21 22:58:00
7:58 PM,77.7,73.8,88,30.14,10.0,Variable,1.2,-,N/A,,Overcast,0,2013-08-21 23:58:00
8:58 PM,77.2,73.6,89,30.15,10.0,East,2.3,-,N/A,,Mostly Cloudy,90,2013-08-22 00:58:00
9:58 PM,77.4,73.6,88,30.18,10.0,East,3.5,-,N/A,,Mostly Cloudy,80,2013-08-22 01:58:00
10:58 PM,75.4,73.6,94,30.17,10.0,NE,2.3,-,N/A,,Mostly Cloudy,40,2013-08-22 02:58:00
11:58 PM,74.8,73.6,96,30.17,10.0,West,3.5,-,N/A,,Clear,260,2013-08-22 03:58:00